TimeCDT,TemperatureF,Dew PointF,Humidity,Sea Level PressureIn,VisibilityMPH,Wind Direction,Wind SpeedMPH,Gust SpeedMPH,PrecipitationIn,Events,Conditions,WindDirDegrees,DateUTC
12:52 AM,69.1,64.0,84,30.17,10.0,Calm,Calm,-,N/A,,Clear,0,2013-07-16 05:52:00
1:52 AM,66.9,64.0,90,30.17,10.0,Calm,Calm,-,N/A,,Partly Cloudy,0,2013-07-16 06:52:00
2:52 AM,68.0,64.0,87,30.17,10.0,Calm,Calm,-,N/A,,Partly Cloudy,0,2013-07-16 07:52:00
3:52 AM,64.9,63.0,93,30.18,10.0,Calm,Calm,-,N/A,,Scattered Clouds,0,2013-07-16 08:52:00
4:52 AM,64.9,63.0,93,30.18,10.0,Calm,Calm,-,N/A,,Clear,0,2013-07-16 09:52:00
5:52 AM,64.0,63.0,96,30.19,10.0,Calm,Calm,-,N/A,,Clear,0,2013-07-16 10:52:00
6:52 AM,64.0,62.1,93,30.20,10.0,Calm,Calm,-,N/A,,Clear,0,2013-07-16 11:52:00
7:52 AM,69.1,64.0,84,30.23,10.0,Calm,Calm,-,N/A,,Mostly Cloudy,0,2013-07-16 12:52:00
8:52 AM,73.0,64.0,73,30.24,10.0,Calm,Calm,-,N/A,,Overcast,0,2013-07-16 13:52:00
9:52 AM,79.0,63.0,58,30.24,10.0,Calm,Calm,-,N/A,,Clear,0,2013-07-16 14:52:00
10:52 AM,82.9,61.0,47,30.25,10.0,Calm,Calm,-,N/A,,Partly Cloudy,0,2013-07-16 15:52:00
11:52 AM,84.9,63.0,48,30.24,10.0,Variable,5.8,-,N/A,,Clear,0,2013-07-16 16:52:00
12:52 PM,88.0,63.0,43,30.23,10.0,SSW,5.8,-,N/A,,Scattered Clouds,210,2013-07-16 17:52:00
1:52 PM,88.0,63.0,43,30.22,10.0,SSE,4.6,-,N/A,,Mostly Cloudy,160,2013-07-16 18:52:00
2:52 PM,91.0,63.0,39,30.20,10.0,SSE,9.2,-,N/A,,Scattered Clouds,160,2013-07-16 19:52:00
3:52 PM,91.9,62.1,37,30.18,10.0,SE,8.1,-,N/A,,Partly Cloudy,140,2013-07-16 20:52:00
4:52 PM,93.0,61.0,34,30.17,10.0,Variable,3.5,-,N/A,,Clear,0,2013-07-16 21:52:00
5:52 PM,89.1,63.0,42,30.18,10.0,SSE,5.8,-,N/A,,Clear,160,2013-07-16 22:52:00
6:52 PM,91.9,62.1,37,30.17,10.0,South,4.6,-,N/A,,Clear,190,2013-07-16 23:52:00
7:52 PM,89.1,63.0,42,30.18,10.0,SE,3.5,-,N/A,,Partly Cloudy,140,2013-07-17 00:52:00
8:52 PM,84.9,64.9,51,30.18,10.0,SSE,3.5,-,N/A,,Clear,160,2013-07-17 01:52:00
9:52 PM,80.1,64.9,60,30.21,10.0,Calm,Calm,-,N/A,,Clear,0,2013-07-17 02:52:00
10:52 PM,78.1,64.9,64,30.23,10.0,SW,3.5,-,N/A,,Clear,230,2013-07-17 03:52:00
11:52 PM,78.1,66.0,66,30.24,10.0,SSW,3.5,-,N/A,,Mostly Cloudy,210,2013-07-17 04:52:00